Tracking 31029 objects as of 16-Jul-2025
HD Live streaming from Space Station
objects crossing your sky now

STARLINK-6262

Track STARLINK-6262 now!
10-day predictions
STARLINK-6262 is classified as:


NORAD ID: 57091
Int'l Code: 2023-088AV
Perigee: 565.4 km
Apogee: 567.1 km
Inclination: 43.0 °
Period: 95.8 minutes
Semi major axis: 6937 km
RCS: Unknown
Launch date: June 22, 2023
Source: United States (US)
Launch site: AIR FORCE WESTERN TEST RANGE (AFWTR)
Your satellite tracking list
Your tracking list is empty




NASA's NSSDC Master Catalog

Two Line Element Set (TLE):
1 57091U 23088AV  25196.71124040 -.00000076  00000-0  94667-5 0  9996
2 57091  43.0040 301.9944 0001239 266.3251  93.7450 15.02534555113968
Source of the keplerian elements: AFSPC